Regional Weather Roundup
Issued by NWS Charleston, SC

Current Version | Previous Version | Graphics & Text | Print | Product List | Glossary On
Versions: 1 2 3 4 5 6 7 8 9 10 11 12 13 14 15 16 17 18 19 20 21 22 23 24 25 26 27 28 29 30 31 32 33 34 35 36 37 38 39 40 41 42 43 44 45 46 47 48 49 50
000 ASUS42 KCHS 271412 RWRCHS REGIONAL WEATHER ROUNDUP NATIONAL WEATHER SERVICE CHARLESTON SC 1000 AM EDT MON MAR 27 2017 NOTE: "FAIR" INDICATES FEW OR NO CLOUDS BELOW 12,000 FEET WITH NO SIGNIFICANT WEATHER AND/OR OBSTRUCTIONS TO VISIBILITY. NOT ALL STATIONS ARE QUALITY CONTROLLED. USE DATA WITH CAUTION... ESPECIALLY DEWPOINT OBSERVATIONS. SCZ027-030-031-034>040-042>050-271500- ...SOUTHEAST SOUTH CAROLINA... CITY SKY/WX TMP DP RH WIND PRES REMARKS N CHARLESTON MOSUNNY 73 57 57 S9 30.15R WATERFRONT PRK N/A 67 62 84 CALM 30.14S JOHNS ISLAND FAIR 72 61 68 S7 30.16R PINOPOLIS NOT AVBL MONCKS CORNER FAIR 70 57 64 S7 30.15S SUMMERVILLE FAIR 70 57 64 S6 30.16R BEAUFORT MCAS MOSUNNY 73 62 68 S5 30.15R BEAUFORT ARPT FAIR 70 61 73 S7 30.15R HILTON HEAD IS SUNNY 72 61 68 S7 30.16R WALTERBORO SUNNY 70 59 68 SW7 30.16R ALLENDALE CLOUDY 70 63 78 SW8 30.14R ...SOUTHERN MIDLANDS AND PEE DEE... CITY SKY/WX TMP DP RH WIND PRES REMARKS GEORGETOWN PTSUNNY 70 55 60 SW6 30.17R KINGSTREE FAIR 70 54 56 SE10 30.15R ORANGEBURG SUNNY 69 61 75 SW12 30.15R BARNWELL FAIR 70 63 78 SW6 30.15R AIKEN PTSUNNY 68 59 73 SW12 30.17R MANNING FAIR 68 55 64 SW8 30.15R COLUMBIA MOSUNNY 70 59 68 S12 30.13R SUMTER MOSUNNY 71 59 64 SW15 30.12R FLORENCE PTSUNNY 69 57 65 SW12 30.15R MYRTLE BEACH NOT AVBL N MYRTLE BEACH SUNNY 70 58 65 S5 30.16R $$ GAZ063-065-086>088-099>101-113>116-118-119-134>141-150-271500- ...SOUTHEAST GEORGIA... CITY SKY/WX TMP DP RH WIND PRES REMARKS SAVANNAH ARPT MOSUNNY 73 60 63 SW10 30.15R HUNTER AAF SUNNY 73 64 74 SW7 30.13R FORT STEWART SUNNY 70 61 72 S5 30.12S STATESBORO CLOUDY 70 64 80 S7 30.15R SYLVANIA CLOUDY N/A N/A N/A SW6 30.16R CLAXTON CLOUDY N/A N/A N/A S8 30.15R ...CSRA...CENTRAL AND FAR SOUTHEAST GEORGIA... CITY SKY/WX TMP DP RH WIND PRES REMARKS THOMSON SUNNY 68 60 74 W8 30.18R AUGUSTA-BUSH SUNNY 67 62 84 CALM 30.13R AUGUSTA-DANIEL SUNNY 67 59 75 SW6 30.14R SWAINSBORO PTSUNNY 68 61 77 S7 30.16R VIDALIA CLOUDY 72 61 68 SW7 30.15R EASTMAN CLOUDY 71 53 53 SW6 30.17R HAZLEHURST FAIR 69 64 82 SW6 30.14R ALMA SUNNY 70 62 76 SW7 30.15R WAYCROSS SUNNY 75 66 73 SW10 30.15R JESUP FAIR 70 59 68 SW6 30.15R BAXLEY PTSUNNY 72 66 83 S10 30.14S BRUNSWICK SUNNY 70 64 83 SW8 30.16R SAINT SIMONS SUNNY 73 61 65 SW7 30.14S $$ SCZ027-028-034-036>038-045-046-048>050-GAZ119-141-271500- ...LAKE AND SUPPLEMENTAL COASTAL OBSERVATIONS... STATION/POSITION TIME TEMP WIND PRES WAVE SWELL AIR SEA DIR/SP/G HT/PER HT/PER/DIR (UTC) (F) (DEG/KT/KT) (MB) (FT/S) (FT/S/D) WINYAH BAY NOT AVBL LAKE MURRAY 1320 64 200/ 6/ 7 1019.6R ACE BASIN NERRS 1245 63 CALM 1021.0 FORT PULASKI 1348 69 63 210/ 5/ 6 1021.1R SAPELO ISLAND 1300 67 190/ 4 1020.0 $$ ANZ835-935-AMZ111-154-330-350-352-354-370-450-454-472-271500- ...C-MAN AND BUOY OBSERVATIONS... STATION/POSITION TIME TEMP WIND PRES WAVE SWELL AIR SEA DIR/SP/G HT/PER HT/PER/DIR (UTC) (F) (DEG/KT/KT) (MB) (FT/S) (FT/S/D) BUOY 41004 1250 72 74 210/ 6/ 8 1020.6 4/10 3/140/10 BUOY 41008 1250 65 62 180/ 2/ 4 1020.2 4/11 3/140/11 FOLLY BEACH CMAN 1400 64 150/ 5/ 5 1021.8R CAPERS NEARSHORE 1308 64 160/ 2/ 6 1020.9R FRIPP NEARSHORE 1308 64 61 170/ 4/ 8 1020.2R STATION/POSITION TIME TEMP WIND PRES WAVE SWELL AIR SEA DIR/SP/G HT/PER HT/PER/DIR (UTC) (F) (DEG/KT/KT) (MB) (FT/S) (FT/S/D) 5E ST. MARYS GA 1330 65 N/A 3/10 2/120/11 FRYING PAN BUOY 1310 72 76 170/ 6/ 8 1021.1 BUOY 41025 1350 70 75 210/ 4/ 6 1022.1R 3/ 9 3/140/ 9 CAPE LOOKOUT NC 1400 72 270/ 5/ 6 1021.6R BUOY 41002 1350 69 72 90/ 14/ 16 1021.4R 5/ 8 5/100/ 8 BUOY 41010 NOT AVBL ST AUGUSTINE FL 1400 68 68 60/ 3/ 3 1021.8R $$

USA.gov is the U.S. government's official web portal to all federal, state and local government web resources and services.